CZ-6A DEB, 60660

Orbit data source: Space-Track

CZ-6A DEB, 60660 is space debris in LEO originally from a launch on Tue, 06 Aug 2024 UTC launched from the Taiyaun Space Center, China (TSC). Debris objects in space refer to the collection of defunct objects orbiting the Earth. Examples of debris include non-operational satellites, rocket bodies, and fragments generated from explosions, collisions, or faulty payload assembly.

Loading next visibility...
Identifier
60660, 2024-140BM
Orbit
LEO
Country
Flag of CNCN / PRC
Related business
Manufacturer
SAST
Mission
Spacecraft
Bus & Motor
Unknown
Mass
Unknown
Launch date (UTC)
2024-08-06 (2 years ago)
Launch vehicle
Unknown
Launch site
Taiyaun Space Center, China (TSC)
Object type
Payload
Rocket body
Debris
Shape & HBR
Unknown shape, 0.5 m
Radar Cross Section
Medium (>0.1 m² and <1 m²)

Expand to show TLE details & history
Last TLE update: 13 hours ago

TLE from 13 hours ago
0 CZ-6A DEB
1 60660U 24140BM  26171.32356788  .00002493  00000-0  46460-3 0  9999
2 60660  88.9960 269.3436 0132050 268.1187  90.4898 14.59260825 98981
Epoch: 2026-06-20T07:45Z
TLE epoch observation values (Epoch: 2026-06-20T07:45:56.264Z)
Latitude
-0.00001°
Longitude
-115.68067°
Altitude
700.703 km
Speed
7.504 km/s
True Right ascension
17h 57m 22s
True Declination
0° 00' 00"
Sunlit
Object was in full shadow at epoch
Visualization orbit readout
Latitude
Unknown
Longitude
Unknown
Altitude
Unknown
Speed
Unknown
Apparent Right ascension
Unknown
Apparent Declination
Unknown
Sunlit
N/A
Visualization observer readout
Local Sidereal Time
07:22:41
Azimuth
Unknown
Elevation
Unknown
Doppler factor
Unknown
Orbital elements
Apogee altitude
785.823 km
Perigee altitude
599.089 km
Semi-major axis
7,070.593 km
Eccentricity
0.01321
Inclination
88.996°
RAAN
269.3436°
Arg. of periapsis
268.1187°
True anomaly
92.00254°
Mean anomaly
90.4898°
Eccentric anomaly
91.24621°
Mean motion
3.65056 °/min
Orbital period
98.62 mins
BSTAR
0.0004646
Loading maneuver chart data...
Computing Atmospheric mass density...
Loading historical data...
Loading historical data...
Loading historical data...
Loading historical data...
Loading historical data...
Loading historical data...
Loading historical data...

Documentation

Showing up to 5 results
|